Weather History for KEUL - August, 2014

Change the Weather History Date:

Sunday, August 10, 2014

  Actual Average (KBOI) Record (KBOI)
Temperature  
Mean Temperature 78 °F 76 °F  
Max Temperature 96 °F 92 °F 105 °F (1986)
Min Temperature 59 °F 61 °F 44 °F (1895)
Degree Days  
Heating Degree Days 0 0  
Month to date heating degree days 0  
Since 1 June heating degree days 72  
Since 1 July heating degree days 8  
Cooling Degree Days 12 11  
Month to date cooling degree days 119  
Year to date cooling degree days 644  
Since 1 June cooling degree days 600  
Growing Degree Days 28 (Base 50)    
Moisture  
Dew Point 50 °F    
Average Humidity 38    
Maximum Humidity 59    
Minimum Humidity 20    
Precipitation  
Precipitation 0.00 in 0.00 in 0.12 in (1983)
Month to date precipitation 0.07  
Year to date precipitation 7.33  
Snow  
Snow 0.00 in 0.00 in 0.00 in (2006)
Month to date snowfall 0.0  
Since 1 July snowfall 0.0  
Snow Depth -    
Sea Level Pressure  
Sea Level Pressure 30.08 in    
Wind  
Wind Speed 5 mph (East)    
Max Wind Speed 10 mph    
Max Gust Speed -    
Visibility 10 miles    
Events      
T = Trace of Precipitation, MM = Missing Value Source: NWS Daily Summary

Daily Weather History Graph

Daily Weather History Graph

Search for Another Location

Airport or City:

Trip Planner

Search our weather history database for the weather conditions in past years. The results will help you decide how hot, cold, wet, or windy it might be!

Date:

Astronomy

Aug. 10, 2014 Rise Set
Actual Time 6:45 AM MDT 8:57 PM MDT
Civil Twilight 6:14 AM MDT 9:28 PM MDT
Nautical Twilight 5:34 AM MDT 10:07 PM MDT
Astronomical Twilight 4:51 AM MDT 10:50 PM MDT
Moon 8:44 PM MDT (8/10) 6:45 AM MDT (8/10)
Length of Visible Light 15h 14m
Length of Day
14h 11m
Full, 100% of the Moon is Illuminated
Aug 10
Full
Aug 10
Full
Aug 17
Last Quarter
Aug 25
New
Sep 2
First Quarter

Hourly Weather History & Observations

Time (MDT) Temp. Heat Index Dew Point Humidity Pressure Visibility Wind Dir Wind Speed Gust Speed Precip Events Conditions
12:15 AM 73.4 °F - 50.0 °F 44% 30.06 in 10.0 mi ENE 4.6 mph - N/A   Clear
12:35 AM 71.6 °F - 48.2 °F 43% 30.07 in 10.0 mi ESE 9.2 mph - N/A   Clear
12:55 AM 68.0 °F - 48.2 °F 49% 30.08 in 10.0 mi SE 8.1 mph - N/A   Clear
1:15 AM 71.6 °F - 46.4 °F 41% 30.09 in 10.0 mi SSE 9.2 mph - N/A   Clear
1:35 AM 71.6 °F - 44.6 °F 38% 30.08 in 10.0 mi SSE 6.9 mph - N/A   Clear
1:55 AM 69.8 °F - 44.6 °F 40% 30.08 in 10.0 mi SSE 5.8 mph - N/A   Clear
2:15 AM 69.8 °F - 44.6 °F 40% 30.08 in 10.0 mi SSE 6.9 mph - N/A   Clear
2:35 AM 66.2 °F - 44.6 °F 46% 30.08 in 10.0 mi ESE 5.8 mph - N/A   Clear
3:15 AM 64.4 °F - 44.6 °F 49% 30.07 in 10.0 mi SE 4.6 mph - N/A   Clear
3:35 AM 64.4 °F - 44.6 °F 49% 30.08 in 10.0 mi Calm Calm - N/A   Clear
3:55 AM 62.6 °F - 44.6 °F 52% 30.08 in 10.0 mi East 3.5 mph - N/A   Clear
4:15 AM 62.6 °F - 44.6 °F 52% 30.09 in 10.0 mi East 5.8 mph - N/A   Clear
4:35 AM 60.8 °F - 44.6 °F 55% 30.09 in 10.0 mi ENE 6.9 mph - N/A   Clear
4:55 AM 60.8 °F - 44.6 °F 55% 30.09 in 10.0 mi Calm Calm - N/A   Clear
5:15 AM 62.6 °F - 44.6 °F 52% 30.10 in 10.0 mi Calm Calm - N/A   Clear
5:35 AM 59.0 °F - 44.6 °F 59% 30.10 in 10.0 mi East 5.8 mph - N/A   Clear
6:15 AM 60.8 °F - 44.6 °F 55% 30.11 in 10.0 mi SSE 3.5 mph - N/A   Clear
6:35 AM 60.8 °F - 44.6 °F 55% 30.11 in 10.0 mi SE 4.6 mph - N/A   Clear
6:55 AM 60.8 °F - 44.6 °F 55% 30.12 in 10.0 mi SSE 4.6 mph - N/A   Clear
7:15 AM 60.8 °F - 44.6 °F 55% 30.12 in 10.0 mi SE 4.6 mph - N/A   Clear
7:35 AM 60.8 °F - 44.6 °F 55% 30.13 in 10.0 mi SE 3.5 mph - N/A   Clear
7:55 AM 62.6 °F - 46.4 °F 55% 30.14 in 10.0 mi SSE 4.6 mph - N/A   Clear
8:15 AM 66.2 °F - 46.4 °F 49% 30.14 in 10.0 mi South 5.8 mph - N/A   Clear
8:35 AM 68.0 °F - 46.4 °F 46% 30.15 in 10.0 mi SSE 4.6 mph - N/A   Clear
8:55 AM 69.8 °F - 46.4 °F 43% 30.15 in 10.0 mi South 4.6 mph - N/A   Clear
9:15 AM 71.6 °F - 48.2 °F 43% 30.15 in 10.0 mi ESE 4.6 mph - N/A   Clear
9:35 AM 73.4 °F - 50.0 °F 44% 30.15 in 10.0 mi ESE 4.6 mph - N/A   Clear
9:55 AM 73.4 °F - 50.0 °F 44% 30.15 in 10.0 mi East 5.8 mph - N/A   Clear
10:15 AM 75.2 °F - 50.0 °F 41% 30.15 in 10.0 mi East 8.1 mph - N/A   Clear
10:35 AM 78.8 °F - 53.6 °F 42% 30.15 in 10.0 mi East 3.5 mph - N/A   Clear
10:55 AM 80.6 °F 80.3 °F 53.6 °F 39% 30.16 in 10.0 mi East 3.5 mph - N/A   Clear
11:15 AM 80.6 °F 80.3 °F 53.6 °F 39% 30.15 in 10.0 mi East 3.5 mph - N/A   Clear
11:35 AM 82.4 °F 81.4 °F 53.6 °F 37% 30.15 in 10.0 mi Calm Calm - N/A   Clear
11:55 AM 84.2 °F - 50.0 °F 30% 30.15 in 10.0 mi SE 5.8 mph - N/A   Clear
12:15 PM 84.2 °F - 50.0 °F 30% 30.14 in 8.0 mi ENE 4.6 mph - N/A   Clear
12:35 PM 86.0 °F - 51.8 °F 31% 30.14 in 10.0 mi East 3.5 mph - N/A   Clear
12:55 PM 87.8 °F - 51.8 °F 29% 30.14 in 10.0 mi East 4.6 mph - N/A   Clear
1:15 PM 87.8 °F - 51.8 °F 29% 30.13 in 10.0 mi East 3.5 mph - N/A   Clear
1:35 PM 89.6 °F - 51.8 °F 27% 30.13 in 10.0 mi East 5.8 mph - N/A   Clear
1:55 PM 91.4 °F - 51.8 °F 26% 30.12 in 10.0 mi SSE 3.5 mph - N/A   Clear
2:15 PM 91.4 °F - 51.8 °F 26% 30.11 in 8.0 mi Calm Calm - N/A   Clear
2:35 PM 91.4 °F - 51.8 °F 26% 30.10 in 10.0 mi Calm Calm - N/A   Clear
2:55 PM 91.4 °F - 51.8 °F 26% 30.09 in 10.0 mi ESE 4.6 mph - N/A   Clear
3:15 PM 93.2 °F - 51.8 °F 24% 30.09 in 10.0 mi East 4.6 mph - N/A   Clear
3:35 PM 93.2 °F - 51.8 °F 24% 30.07 in 10.0 mi Calm Calm - N/A   Clear
3:55 PM 93.2 °F - 51.8 °F 24% 30.07 in 10.0 mi NNE 3.5 mph - N/A   Clear
4:35 PM 95.0 °F - 51.8 °F 23% 30.04 in 10.0 mi North 4.6 mph - N/A   Clear
4:55 PM 96.8 °F - 51.8 °F 22% 30.04 in 10.0 mi NNE 3.5 mph - N/A   Clear
5:15 PM 95.0 °F - 51.8 °F 23% 30.03 in 10.0 mi NE 4.6 mph - N/A   Clear
5:35 PM 95.0 °F - 51.8 °F 23% 30.03 in 10.0 mi NNW 3.5 mph - N/A   Clear
5:55 PM 95.0 °F - 51.8 °F 23% 30.02 in 10.0 mi Calm Calm - N/A   Clear
6:15 PM 96.8 °F - 50.0 °F 20% 30.01 in 10.0 mi Calm Calm - N/A   Clear
6:35 PM 96.8 °F - 51.8 °F 22% 30.01 in 10.0 mi NNW 4.6 mph - N/A   Clear
6:55 PM 95.0 °F 92.7 °F 53.6 °F 25% 30.00 in 10.0 mi NNW 6.9 mph - N/A   Clear
7:15 PM 93.2 °F 91.9 °F 57.2 °F 30% 30.00 in 10.0 mi NNW 5.8 mph - N/A   Clear
7:35 PM 93.2 °F - 51.8 °F 24% 30.00 in 10.0 mi NW 4.6 mph - N/A   Clear
7:55 PM 89.6 °F - 51.8 °F 27% 30.01 in 10.0 mi NW 6.9 mph - N/A   Clear
8:15 PM 87.8 °F 85.7 °F 53.6 °F 31% 30.01 in 10.0 mi NNW 6.9 mph - N/A   Clear
8:35 PM 87.8 °F 85.7 °F 53.6 °F 31% 30.01 in 10.0 mi NNW 5.8 mph - N/A   Clear
8:55 PM 84.2 °F 82.8 °F 53.6 °F 35% 30.02 in 9.0 mi NNW 3.5 mph - N/A   Clear
9:15 PM 82.4 °F 81.4 °F 53.6 °F 37% 30.02 in 10.0 mi North 3.5 mph - N/A   Clear
9:35 PM 82.4 °F 81.4 °F 53.6 °F 37% 30.03 in 10.0 mi WSW 10.4 mph - N/A   Clear
9:55 PM 82.4 °F 81.4 °F 53.6 °F 37% 30.03 in 10.0 mi West 6.9 mph - N/A   Clear
10:15 PM 80.6 °F 80.3 °F 53.6 °F 39% 30.03 in 10.0 mi NW 5.8 mph - N/A   Clear
10:35 PM 78.8 °F - 53.6 °F 42% 30.03 in 10.0 mi NW 4.6 mph - N/A   Clear
10:55 PM 78.8 °F - 53.6 °F 42% 30.03 in 10.0 mi NW 5.8 mph - N/A   Clear
11:15 PM 73.4 °F - 51.8 °F 47% 30.02 in 10.0 mi NNE 4.6 mph - N/A   Clear
11:35 PM 73.4 °F - 51.8 °F 47% 30.02 in 10.0 mi East 5.8 mph - N/A   Clear
11:55 PM 71.6 °F - 51.8 °F 50% 30.03 in 10.0 mi SE 8.1 mph - N/A   Clear